(183815) = 2004 BH70

Discovered at Socorro on 2004-01-22 by LINEAR.

Orbit

Orbit type: Main Belt

Note: WebGL enabled browser required.

epoch2023-02-25.0
epoch JD2460000.5
perihelion date2021-07-07.66063
perihelion JD2459403.16063
argument of perihelion (°)300.26620
ascending node (°)104.83242
inclination (°)5.61489
eccentricity0.1386516
perihelion distance (AU)2.0318747
Tisserand w.r.t. Jupiter3.5
ΔV w.r.t. Earth (km/sec)9.0
semimajor axis (AU)2.3589464
mean anomaly (°)162.49795
mean daily motion (°/day)0.27203620
aphelion distance (AU)2.686
period (years)3.62
P-vector [x]0.70188261
P-vector [y]0.68251447
P-vector [z]0.20380087
Q-vector [x]-0.70598525
Q-vector [y]0.62859209
Q-vector [z]0.32627720
absolute magnitude17.05
phase slope0.15
uncertainty0
referenceMPO 745323
observations used515
oppositions15
arc length (days)7631
first opposition used2002
last opposition used2023
residual rms (arc-secs)0.76
perturbers coarse indicatorM-v
perturbers precise indicator003Ek
first observation date used2002-07-17.0
last observation date used2023-06-08.0
computer nameMPCLINUX
JD of orbit computation2456581.758381
perihelion JD uncertainty (days)9.1243E-05
argument of perihelion uncertainty (°)6.7196E-05
ascending node uncertainty (°)6.2937E-05
inclination uncertainty (°)5.3399E-06
eccentricity uncertainty 5.3931E-08
perihelion distance uncertainty (AU)1.3759E-07
Minimum Orbit Intersection Distances (in AU)
for orbit epoch: 2460000.5, reference: E2023-L38
Mercury1.71197
Venus1.31045
Earth1.04678
Mars0.54019
Jupiter2.67993
Saturn6.87749
Uranus15.8954
Neptune27.7804

Observations

528 total observations over interval: 2002 07 17.29808 – 2023 06 08.374112
These data are available for download (format description).

Date (UT) J2000 RA J2000 Dec Magn Location Ref
2002 07 17.29808 20 52 17.91 -20 44 12.8 20.4   644 – Palomar Mountain/NEAT MPS 135352
2002 07 17.36228 20 52 14.51 -20 44 37.6 20.0   644 – Palomar Mountain/NEAT MPS 135352
2002 07 17.42558 20 52 11.13 -20 45 02.6 20.5   644 – Palomar Mountain/NEAT MPS 135352
2004 01 16.31753 08 52 32.11 +20 49 25.7 19.5   644 – Palomar Mountain/NEAT MPS 97948
2004 01 16.34074 08 52 30.70 +20 49 35.9 19.6   644 – Palomar Mountain/NEAT MPS 97948
2004 01 16.36862 08 52 29.01 +20 49 47.6 19.4   644 – Palomar Mountain/NEAT MPS 97948
2004 01 22.29283 08 46 31.38 +21 32 15.9 19.8   704 – Lincoln Laboratory ETS, New Mexico MPS 97948
2004 01 22.30572 08 46 30.47 +21 32 22.6 20.3   704 – Lincoln Laboratory ETS, New Mexico MPS 97948
2004 01 22.31862 08 46 29.61 +21 32 26.1 19.8   704 – Lincoln Laboratory ETS, New Mexico MPS 97948
2004 01 22.33149 08 46 28.94 +21 32 32.7 20.9   704 – Lincoln Laboratory ETS, New Mexico MPS 97948
2004 01 22.34450 08 46 27.92 +21 32 38.1 19.9   704 – Lincoln Laboratory ETS, New Mexico MPS 97948
2004 01 26.26826 08 42 19.96 +22 00 00.1 19.1 R 699 – Lowell Observatory-LONEOS MPS 97948
2004 01 26.28834 08 42 18.58 +22 00 08.4   699 – Lowell Observatory-LONEOS MPS 97948
2004 01 26.29921 08 42 17.89 +22 00 13.8   699 – Lowell Observatory-LONEOS MPS 97948
2004 01 26.31918 08 42 16.50 +22 00 22.0   699 – Lowell Observatory-LONEOS MPS 97948
2004 01 30.19161 08 38 10.11 +22 26 10.4 19.9 V 691 – Steward Observatory, Kitt Peak-Spacewatch MPS 97948
2004 01 30.22151 08 38 08.16 +22 26 22.1 19.8 V 691 – Steward Observatory, Kitt Peak-Spacewatch MPS 97948
2004 01 30.24968 08 38 06.30 +22 26 33.4 19.7 V 691 – Steward Observatory, Kitt Peak-Spacewatch MPS 97948
2004 01 30.29088 08 38 03.53 +22 26 50.0 19.5   704 – Lincoln Laboratory ETS, New Mexico MPS 97948
2004 01 30.30354 08 38 02.69 +22 26 53.7 19.7   704 – Lincoln Laboratory ETS, New Mexico MPS 97948
2004 01 30.31607 08 38 01.91 +22 26 59.4 20.0   704 – Lincoln Laboratory ETS, New Mexico MPS 97948
2004 01 30.32846 08 38 01.03 +22 27 04.3 19.4   704 – Lincoln Laboratory ETS, New Mexico MPS 97948
2004 02 17.14557 08 21 17.80 +24 00 11.9 20.6 V 691 – Steward Observatory, Kitt Peak-Spacewatch MPS 100130
2004 02 17.17320 08 21 16.51 +24 00 18.2 20.5 V 691 – Steward Observatory, Kitt Peak-Spacewatch MPS 100130
2004 02 17.20066 08 21 15.21 +24 00 24.8 20.4 V 691 – Steward Observatory, Kitt Peak-Spacewatch MPS 100130
2004 02 23.21811 08 17 15.18 +24 20 16.2 20.3   704 – Lincoln Laboratory ETS, New Mexico MPS 100130
2004 02 23.22966 08 17 14.72 +24 20 18.9 20.1   704 – Lincoln Laboratory ETS, New Mexico MPS 100130
2004 02 23.24105 08 17 14.32 +24 20 19.7 20.9   704 – Lincoln Laboratory ETS, New Mexico MPS 100130
2004 02 23.25245 08 17 13.93 +24 20 22.4 20.7   704 – Lincoln Laboratory ETS, New Mexico MPS 100130
2004 02 23.26384 08 17 13.53 +24 20 24.0 20.2   704 – Lincoln Laboratory ETS, New Mexico MPS 100130
2005 05 10.33782 15 55 20.30 -13 25 41.5 20.8 V 691 – Steward Observatory, Kitt Peak-Spacewatch MPS 134864
2005 05 10.35579 15 55 19.23 -13 25 38.5 20.8 V 691 – Steward Observatory, Kitt Peak-Spacewatch MPS 134864
2005 05 10.37359 15 55 18.15 -13 25 36.0 20.9 V 691 – Steward Observatory, Kitt Peak-Spacewatch MPS 134864
2005 05 16.32495 15 49 23.44 -13 12 13.1 19.5 R G96 – Mt. Lemmon Survey MPS 134864
2005 05 16.33292 15 49 22.95 -13 12 12.2 19.8 R G96 – Mt. Lemmon Survey MPS 134864
2005 05 16.34083 15 49 22.45 -13 12 11.1 20.3 R G96 – Mt. Lemmon Survey MPS 134864
2005 05 16.34874 15 49 21.96 -13 12 09.9 20.1 R G96 – Mt. Lemmon Survey MPS 134864
2005 05 19.32307 15 46 20.97 -13 05 59.4 20.0 R G96 – Mt. Lemmon Survey MPS 134864
2005 05 19.32963 15 46 20.54 -13 05 59.1 19.6 R G96 – Mt. Lemmon Survey MPS 134864
2005 05 19.33618 15 46 20.14 -13 05 57.7 19.4 R G96 – Mt. Lemmon Survey MPS 134864
2005 05 19.34276 15 46 19.73 -13 05 57.3 19.1 R G96 – Mt. Lemmon Survey MPS 134864
2005 05 20.29279 15 45 21.92 -13 04 04.1 20.1 V G96 – Mt. Lemmon Survey MPS 134864
2005 05 20.29655 15 45 21.63 -13 04 03.5 19.8 V G96 – Mt. Lemmon Survey MPS 134864
2005 05 20.30035 15 45 21.42 -13 04 03.0 20.0 V G96 – Mt. Lemmon Survey MPS 134864
2005 05 20.30411 15 45 21.20 -13 04 03.1 20.4 V G96 – Mt. Lemmon Survey MPS 134865
2006 09 18.27539 01 01 54.62 -04 37 56.0 19.2 V 703 – Catalina Sky Survey MPS 179314
2006 09 18.28255 01 01 54.40 -04 37 59.2 19.1 V 703 – Catalina Sky Survey MPS 179314
2006 09 18.28970 01 01 54.01 -04 38 02.6 19.3 V 703 – Catalina Sky Survey MPS 179314
2006 09 18.29686 01 01 53.72 -04 38 04.6 19.3 V 703 – Catalina Sky Survey MPS 179314
2006 09 18.30953 01 01 53.24 -04 38 10.2 18.9 R 699 – Lowell Observatory-LONEOS MPS 179314
2006 09 18.33145 01 01 52.29 -04 38 20.2   699 – Lowell Observatory-LONEOS MPS 179314
2006 09 18.35339 01 01 51.34 -04 38 30.8   699 – Lowell Observatory-LONEOS MPS 179314
2006 09 18.37533 01 01 50.38 -04 38 39.0   699 – Lowell Observatory-LONEOS MPS 179314
2006 09 18.46126 01 01 46.93 -04 39 08.8 19.5 V F84 – Hibiscus Observatory, Punaauia MPS 179314
2006 09 18.49827 01 01 45.36 -04 39 25.3 18.9 V F84 – Hibiscus Observatory, Punaauia MPS 179314
2006 09 19.43815 01 01 06.96 -04 46 06.1 19.5 V F84 – Hibiscus Observatory, Punaauia MPS 179314
2006 09 19.48264 01 01 04.89 -04 46 25.1 19.3 V F84 – Hibiscus Observatory, Punaauia MPS 179314
2006 09 19.52909 01 01 02.86 -04 46 46.3 19.1 V F84 – Hibiscus Observatory, Punaauia MPS 179314
2006 09 26.35318 00 55 49.90 -05 34 52.3 18.9 V 703 – Catalina Sky Survey MPS 181017
2006 09 26.36153 00 55 49.44 -05 34 55.1 18.8 V 703 – Catalina Sky Survey MPS 181017
2006 09 26.36985 00 55 49.04 -05 34 59.3 19.2 V 703 – Catalina Sky Survey MPS 181017
2006 09 26.37822 00 55 48.57 -05 35 03.1 19.6 V 703 – Catalina Sky Survey MPS 181017
2006 10 02.30523 00 50 44.16 -06 14 01.7 19.7 V 703 – Catalina Sky Survey MPS 182656
2006 10 02.31365 00 50 43.69 -06 14 04.7 19.6 V 703 – Catalina Sky Survey MPS 182656
2006 10 02.32208 00 50 43.22 -06 14 07.4 19.0 V 703 – Catalina Sky Survey MPS 182656
2006 10 02.33046 00 50 42.75 -06 14 09.8 19.3 V 703 – Catalina Sky Survey MPS 182656
2006 10 17.22278 00 37 45.73 -07 26 27.2 19.9 V 703 – Catalina Sky Survey MPS 182925
2006 10 17.23059 00 37 45.33 -07 26 29.0 19.6 V 703 – Catalina Sky Survey MPS 182925
2006 10 17.23838 00 37 44.86 -07 26 30.1 19.0 V 703 – Catalina Sky Survey MPS 182925
2006 10 17.24615 00 37 44.54 -07 26 33.3 19.5 V 703 – Catalina Sky Survey MPS 182925
2006 10 22.24107 00 33 56.30 -07 39 15.0 18.9 V 703 – Catalina Sky Survey MPS 184047
2006 10 22.24748 00 33 56.05 -07 39 15.7 18.9 V 703 – Catalina Sky Survey MPS 184047
2006 10 22.24778 00 33 56.06 -07 39 14.4 19.3 R 644 – Palomar Mountain/NEAT MPS 184047
2006 10 22.25389 00 33 55.69 -07 39 16.5 19.4 V 703 – Catalina Sky Survey MPS 184047
2006 10 22.26034 00 33 55.36 -07 39 17.2 19.6 V 703 – Catalina Sky Survey MPS 184047
2006 10 22.27272 00 33 54.94 -07 39 17.2 19.4 R 644 – Palomar Mountain/NEAT MPS 184047
2006 10 22.29656 00 33 53.85 -07 39 19.5 19.5 R 644 – Palomar Mountain/NEAT MPS 184047
2006 10 23.26946 00 33 13.02 -07 41 00.4 19.1 R 644 – Palomar Mountain/NEAT MPS 184048
2006 10 23.29103 00 33 12.10 -07 41 02.4 19.0 R 644 – Palomar Mountain/NEAT MPS 184048
2006 10 23.31339 00 33 11.11 -07 41 04.5 19.4 R 644 – Palomar Mountain/NEAT MPS 184048
2008 03 01.22235 12 08 39.60 +08 09 18.7 20.1 V 691 – Steward Observatory, Kitt Peak-Spacewatch MPS 240699
2008 03 01.23998 12 08 38.66 +08 09 26.5 20.4 V 691 – Steward Observatory, Kitt Peak-Spacewatch MPS 240699
2008 03 01.25760 12 08 37.82 +08 09 34.3 20.4 V 691 – Steward Observatory, Kitt Peak-Spacewatch MPS 240699
2008 03 08.21812 12 02 42.05 +09 01 38.5   691 – Steward Observatory, Kitt Peak-Spacewatch MPS 242071
2008 03 08.23581 12 02 41.04 +09 01 46.6   691 – Steward Observatory, Kitt Peak-Spacewatch MPS 242071
2008 03 08.25348 12 02 40.06 +09 01 54.5   691 – Steward Observatory, Kitt Peak-Spacewatch MPS 242071
2008 03 12.21469 11 59 02.54 +09 30 48.8 20.3 V 691 – Steward Observatory, Kitt Peak-Spacewatch MPS 243541
2008 03 12.23241 11 59 01.54 +09 30 56.3 20.2 V 691 – Steward Observatory, Kitt Peak-Spacewatch MPS 243541
2008 03 12.25011 11 59 00.54 +09 31 03.8 20.1 V 691 – Steward Observatory, Kitt Peak-Spacewatch MPS 243541
